Date String (YYYY-MM-DD hh:mm:ss) UTC,Instrument flags,absolute air pressure of the measurement (hPa),sample flow rate (lpm),inlet stack bypass flow (lpm),air temperature of the measurement (°C),ambient temperature measured by the external sensor (°C),aerosol sample conditioner tube jacket temperature (°C),OPC LED temperature (°C),internal box temperature (°C),relative humidity of the measurement (%),span deviation,mass concentration of particles derived from Lorenz-Mie calculation of OPC scattering (μg/m³),mass concentration of particles derived from Lorenz-Mie calculation of OPC scattering (μg/m³),mass concentration of particles derived from Lorenz-Mie calculation of OPC scattering (μg/m³)
DateTimeUTC,F1_M11,P_M11,Q1_M11,Q2_M11,T1_M11,T2_M11,T3_M11,T4_M11,T5_M11,U1_M11,ZSPAN_M11,X2_M11,X0_M11,X1_M11
2024-03-21 02:00:00,SystemResetWarning,0825.9,4.99,000.00,025.5,024.6,000.0,034.2,027.4,16.1,0004.9,0009.77,0017.83,0008.61
2024-03-21 02:01:00,SystemResetWarning,0825.9,4.99,000.00,025.5,024.6,000.0,034.1,027.4,15.9,0005.1,0009.78,0018.55,0008.59
2024-03-21 02:02:00,SystemResetWarning,0825.9,5.01,000.00,025.5,024.6,000.0,034.1,027.4,15.9,0005.0,0009.79,0018.70,0008.60
2024-03-21 02:03:00,SystemResetWarning,0825.9,5.01,000.00,025.5,024.6,000.0,034.1,027.4,15.8,0005.0,0009.72,0019.72,0008.58
2024-03-21 02:04:00,SystemResetWarning,0825.9,5.01,000.00,025.5,024.6,000.0,034.1,027.4,15.8,0005.1,0009.70,0020.08,0008.57
2024-03-21 02:05:00,SystemResetWarning,0825.9,5.00,000.00,025.5,024.6,000.0,034.1,027.4,16.1,0005.1,0009.63,0020.25,0008.52
2024-03-21 02:06:00,SystemResetWarning,0825.9,4.99,000.00,025.5,024.5,000.0,034.1,027.3,16.0,0004.9,0009.58,0020.31,0008.45
2024-03-21 02:07:00,SystemResetWarning,0825.9,5.00,000.00,025.5,024.5,000.0,034.1,027.3,16.0,0004.2,0009.57,0021.15,0008.41
2024-03-21 02:08:00,SystemResetWarning,0825.9,5.02,000.00,025.5,024.5,000.0,034.1,027.3,15.9,0003.8,0009.58,0021.09,0008.39
2024-03-21 02:09:00,SystemResetWarning,0825.9,4.99,000.00,025.5,024.5,000.0,034.1,027.3,15.9,0003.4,0009.61,0020.83,0008.44
2024-03-21 02:10:00,SystemResetWarning,0825.9,5.00,000.00,025.5,024.5,000.0,034.1,027.3,15.9,0003.0,0009.63,0020.61,0008.49
2024-03-21 02:11:00,SystemResetWarning,0825.9,5.02,000.00,025.5,024.5,000.0,034.1,027.3,15.9,0003.2,0009.71,0021.23,0008.57
2024-03-21 02:12:00,SystemResetWarning,0825.9,4.99,000.00,025.5,024.5,000.0,034.1,027.3,16.0,0003.3,0009.77,0021.24,0008.61
2024-03-21 02:13:00,SystemResetWarning,0825.9,4.99,000.00,025.5,024.5,000.0,034.1,027.3,16.1,0003.6,0009.80,0022.00,0008.61
2024-03-21 02:14:00,SystemResetWarning,0826.0,5.00,000.00,025.4,024.5,000.0,034.1,027.3,16.3,0003.9,0009.83,0020.98,0008.58
2024-03-21 02:15:00,SystemResetWarning,0825.9,5.00,000.00,025.4,024.5,000.0,034.1,027.3,16.5,0004.0,0009.79,0021.04,0008.52
2024-03-21 02:16:00,SystemResetWarning,0826.0,5.00,000.00,025.4,024.5,000.0,034.1,027.3,16.5,0004.2,0009.73,0021.97,0008.46
2024-03-21 02:17:00,SystemResetWarning,0826.0,5.00,000.00,025.4,024.5,000.0,034.1,027.3,16.5,0004.5,0009.70,0024.24,0008.40
2024-03-21 02:18:00,SystemResetWarning,0826.0,5.01,000.00,025.4,024.4,000.0,034.1,027.3,16.1,0005.0,0009.69,0023.77,0008.38
2024-03-21 02:19:00,SystemResetWarning,0826.0,5.01,000.00,025.4,024.4,000.0,034.1,027.2,15.9,0005.1,0009.69,0023.65,0008.40
2024-03-21 02:20:00,SystemResetWarning,0826.0,5.00,000.00,025.4,024.4,000.0,034.1,027.2,15.8,0005.1,0009.74,0023.92,0008.44
2024-03-21 02:21:00,SystemResetWarning,0826.0,4.99,000.00,025.4,024.4,000.0,034.0,027.2,15.8,0005.1,0009.81,0024.68,0008.49
2024-03-21 02:22:00,SystemResetWarning,0826.0,4.99,000.00,025.4,024.4,000.0,034.0,027.2,15.9,0004.9,0009.88,0025.35,0008.51
2024-03-21 02:23:00,SystemResetWarning,0826.0,5.01,000.00,025.4,024.4,000.0,034.0,027.2,15.9,0004.9,0009.89,0024.32,0008.53
2024-03-21 02:24:00,SystemResetWarning,0826.0,5.01,000.00,025.4,024.4,000.0,034.0,027.2,16.0,0005.0,0009.94,0024.45,0008.58
2024-03-21 02:25:00,SystemResetWarning,0826.0,4.99,000.00,025.3,024.4,000.0,034.0,027.2,16.0,0005.1,0010.01,0025.08,0008.64
2024-03-21 02:26:00,SystemResetWarning,0826.0,5.00,000.00,025.3,024.4,000.0,034.0,027.2,16.1,0005.2,0010.05,0025.10,0008.72
2024-03-21 02:27:00,SystemResetWarning,0826.0,5.00,000.00,025.3,024.4,000.0,034.0,027.2,16.2,0005.3,0010.13,0023.85,0008.79
2024-03-21 02:28:00,SystemResetWarning,0826.0,4.99,000.00,025.3,024.4,000.0,034.0,027.2,16.3,0005.3,0010.17,0021.98,0008.85
2024-03-21 02:29:00,SystemResetWarning,0826.0,5.01,000.00,025.3,024.3,000.0,034.0,027.2,16.3,0005.2,0010.22,0021.45,0008.91
2024-03-21 02:30:00,SystemResetWarning,0826.1,5.00,000.00,025.3,024.3,000.0,034.0,027.2,16.4,0005.3,0010.20,0021.36,0008.90
2024-03-21 02:31:00,SystemResetWarning,0826.1,4.99,000.00,025.3,024.3,000.0,034.0,027.2,16.4,0005.4,0010.08,0021.17,0008.85
2024-03-21 02:32:00,SystemResetWarning,0826.1,4.99,000.00,025.3,024.3,000.0,034.0,027.1,16.5,0005.5,0010.02,0021.05,0008.78
2024-03-21 02:33:00,SystemResetWarning,0826.1,5.01,000.00,025.3,024.3,000.0,034.0,027.1,16.5,0005.5,0009.91,0019.75,0008.71
2024-03-21 02:34:00,SystemResetWarning,0826.1,5.01,000.00,025.3,024.3,000.0,034.0,027.1,16.5,0005.6,0009.85,0019.85,0008.65
2024-03-21 02:35:00,SystemResetWarning,0826.1,4.99,000.00,025.3,024.3,000.0,034.0,027.1,16.4,0005.3,0009.76,0019.78,0008.59
2024-03-21 02:36:00,SystemResetWarning,0826.1,5.00,000.00,025.3,024.3,000.0,034.0,027.1,16.5,0005.2,0009.68,0018.77,0008.54
2024-03-21 02:37:00,SystemResetWarning,0826.1,4.99,000.00,025.3,024.3,000.0,033.9,027.1,16.5,0004.9,0009.73,0018.70,0008.51
2024-03-21 02:38:00,SystemResetWarning,0826.1,5.00,000.00,025.2,024.2,000.0,033.9,027.1,16.5,0004.4,0009.73,0020.03,0008.51
2024-03-21 02:39:00,SystemResetWarning,0826.1,4.99,000.00,025.2,024.2,000.0,033.9,027.1,16.4,0003.7,0009.73,0020.51,0008.51
2024-03-21 02:40:00,SystemResetWarning,0826.1,5.01,000.00,025.2,024.2,000.0,033.9,027.1,16.5,0003.2,0009.71,0020.44,0008.50
2024-03-21 02:41:00,SystemResetWarning,0826.1,5.01,000.00,025.2,024.2,000.0,033.9,027.1,16.5,0003.6,0009.73,0021.10,0008.51
2024-03-21 02:42:00,SystemResetWarning,0826.1,5.00,000.00,025.2,024.2,000.0,033.9,027.1,16.5,0003.8,0009.77,0021.61,0008.52
2024-03-21 02:43:00,SystemResetWarning,0826.1,5.00,000.00,025.2,024.2,000.0,033.9,027.1,16.5,0003.8,0009.82,0021.62,0008.56
2024-03-21 02:44:00,SystemResetWarning,0826.1,5.00,000.00,025.2,024.2,000.0,033.9,027.0,16.4,0003.7,0009.86,0021.87,0008.60
2024-03-21 02:45:00,SystemResetWarning,0826.1,5.00,000.00,025.2,024.2,000.0,033.9,027.1,16.4,0003.9,0009.87,0022.06,0008.62
2024-03-21 02:46:00,SystemResetWarning,0826.1,4.99,000.00,025.2,024.2,000.0,033.9,027.0,16.4,0004.2,0009.89,0022.11,0008.65
2024-03-21 02:47:00,SystemResetWarning,0826.1,5.01,000.00,025.2,024.2,000.0,033.9,027.0,16.5,0004.1,0009.94,0023.35,0008.66
2024-03-21 02:48:00,SystemResetWarning,0826.1,5.00,000.00,025.2,024.2,000.0,033.9,027.0,16.5,0004.0,0009.91,0023.50,0008.68
2024-03-21 02:49:00,SystemResetWarning,0826.1,5.00,000.00,025.1,024.2,000.0,033.9,027.0,16.5,0004.6,0009.89,0022.50,0008.70
2024-03-21 02:50:00,SystemResetWarning,0826.0,4.98,000.00,025.1,024.2,000.0,033.8,027.0,16.5,0004.6,0009.91,0021.93,0008.71
2024-03-21 02:51:00,SystemResetWarning,0826.0,5.01,000.00,025.1,024.2,000.0,033.8,027.0,16.5,0004.5,0009.92,0022.68,0008.73
2024-03-21 02:52:00,SystemResetWarning,0826.1,5.01,000.00,025.1,024.1,000.0,033.8,027.0,16.5,0004.4,0009.93,0023.13,0008.73
2024-03-21 02:53:00,SystemResetWarning,0826.0,5.00,000.00,025.1,024.1,000.0,033.8,027.0,16.4,0004.1,0009.95,0022.83,0008.72
2024-03-21 02:54:00,SystemResetWarning,0826.1,5.00,000.00,025.1,024.1,000.0,033.8,027.0,16.4,0003.8,0009.93,0022.85,0008.73
2024-03-21 02:55:00,SystemResetWarning,0826.1,5.00,000.00,025.1,024.1,000.0,033.8,027.0,16.4,0004.3,0009.91,0023.37,0008.73
2024-03-21 02:56:00,SystemResetWarning,0826.1,4.99,000.00,025.1,024.1,000.0,033.8,026.9,16.4,0004.3,0009.96,0024.68,0008.75
2024-03-21 02:57:00,SystemResetWarning,0826.0,5.00,000.00,025.1,024.1,000.0,033.8,026.9,16.4,0004.1,0010.01,0025.11,0008.74
2024-03-21 02:58:00,SystemResetWarning,0826.0,5.00,000.00,025.1,024.1,000.0,033.8,026.9,16.3,0004.0,0009.93,0023.87,0008.74
2024-03-21 02:59:00,SystemResetWarning,0826.1,5.00,000.00,025.1,024.1,000.0,033.8,026.9,16.3,0004.4,0009.89,0022.67,0008.73
